SCP
-0 -0 -0 -0 -0 -0 -0 -0 -0 -0 -0 -0 0 -0 -0 -0 0 -0 -0 0 0 -0 -0 0 0 0 0 0 0 0 0 0 0 0 0 0 0 0 0 0 0 0 0
0 0 -0 -0 -0 -0 -0 -0 -0 -0 -0 -0 0 -0 -0 -0 -0 0 0 -0 -0 -0 0 0 0 0 0 0 0 0 0 0 0 0 0 0 0 0 0 0 0 0 0
0 0 -0 -0 -0 -0 -0 -0 -0 -0 -0 -0 0 0 -0 -0 -0 0 0 0 -0 -0 -0 0 0 0 0 0 0 0 0 0 0 0 0 0 0 0 0 0 0 0 0
0 0 -0 -0 -0 -0 -0 -0 -0 -0 -0 -0 0 0 0 0 -0 -0 0 -0 -0 0 0 0 0 0 0 0 0 0 0 0 0 0 0 0 0 0 0 0 0 0 0
-0 -0 -0 -0 -0 -0 -0 -0 -0 -0 -0 -0 -0 -0 -0 0 -0 -0 0 0 -0 -0 0 0 0 0 0 0 0 0 0 0 0 0 0 0 0 0 0 0 0 0 0
-0 -0 -0 -0 -0 -0 -0 -0 -0 -0 -0 -0 -0 -0 -0 -0 0 -0 -0 -0 -0 -0 0 0 0 0 0 0 0 0 0 0 0 0 0 0 0 0 0 0 0 0 0
-0 -0 -0 -0 -0 -0 -0 -0 -0 -0 -0 -0 -0 -0 -0 0 0 0 -0 -0 -0 -0 -0 0 0 0 -0 0 0 0 -0 0 0 0 0 0 0 0 0 0 0 0 0
-0 -0 -0 -0 -0 -0 -0 -0 -0 -0 -0 -0 -0 -0 -0 0 0 0 0 0 0 -0 0 0 0 0 0 0 0 0 -0 -0 0 0 0 0 0 0 0 0 0 0 0
-0 -0 -0 -0 -0 -0 -0 -0 -0 -0 -0 -0 -0 -0 -0 -0 -0 -0 0 0 0 0 0 0 0 0 0 0 0 0 0 0 0 0 0 0 0 0 0 0 0 0 0
-0 0 -0 -0 -0 -0 -0 -0 -0 -0 -0 -0 -0 -0 -0 -0 -0 0 0 0 -0 0 0 0 0 0 0 0 0 0 0 0 0 0 0 0 0 0 0 0 0 0 0
-0 -0 -0 0 0 -0 -0 -0 -0 -0 -0 -0 -0 -0 0 0 0 0 0 0 0 0 0 0 0 0 0 0 0 0 0 0 0 0 0 0 0 0 0 0 0 0 0
-1 -1 -0 -0 0 0 0 0 0 0 -0 0 0 0 0 0 0 0 0 0 0 0 0 0 0 -0 0 0 0 0 0 0 0 0 0 0 0 0 0 0 0 0 0
-0 -0 -0 -0 -0 0 0 0 0 0 0 0 0 1 1 1 0 0 0 0 0 0 0 -0 -0 -0 0 0 0 0 0 0 0 0 0 0 0 0 0 0 0 0 0
0 0 0 0 -0 -0 0 0 0 0 0 1 1 1 1 1 1 1 1 1 0 0 0 0 0 0 0 0 0 0 0 0 0 0 0 0 0 0 0 0 0 0 0
0 0 0 0 0 1 1 1 1 0 0 1 1 1 1 0 0 1 1 1 1 0 0 0 0 0 0 1 0 0 0 0 0 0 0 0 0 0 0 0 0 0 0
0 0 0 0 0 0 0 0 0 0 1 2 2 2 1 1 1 1 1 1 1 1 1 1 0 1 1 1 0 0 1 0 0 0 0 0 0 0 0 0 0 0 0
0 0 0 0 0 0 0 0 0 0 0 1 2 1 1 2 2 1 1 1 1 1 1 1 1 1 1 0 0 0 1 0 0 0 0 0 0 0 0 0 0 0 0
0 0 0 0 0 0 0 -0 0 0 0 0 0 1 0 0 2 2 1 1 2 2 2 1 2 2 1 0 0 0 0 0 0 0 0 0 0 0 0 0 0 0 0
0 0 0 0 0 0 0 0 0 0 0 0 0 0 0 0 0 1 1 1 2 2 3 3 2 3 1 0 0 0 0 0 0 0 0 0 0 0 0 0 0 0 0
0 0 0 0 0 0 0 0 0 0 0 -0 -0 -0 -0 -0 -0 -0 0 0 1 2 3 4 1 0 0 0 0 0 0 0 0 0 0 0 0 0 0 0 0 0 0
0 0 0 0 0 0 0 0 0 0 -0 -0 -0 -0 -0 0 0 -0 -0 0 1 1 2 0 0 0 0 0 0 0 0 0 0 0 0 0 0 0 0 0 0 0 0
0 0 0 0 0 0 0 0 0 0 0 0 0 -0 -0 -0 0 0 0 0 0 0 0 0 0 0 0 0 0 0 0 0 0 0 0 0 0 0 0 0 0 0 0
0 0 0 0 0 0 0 0 0 0 0 0 0 0 0 0 0 0 0 0 0 0 0 0 0 0 0 0 0 0 0 0 0 0 0 0 0 0 0 0 0 0 0
0 0 0 0 0 0 0 0 0 0 0 0 0 0 0 0 0 0 0 0 0 0 0 0 0 0 0 0 0 0 0 0 0 0 0 0 0 0 0 0 0 0 0
0 0 0 0 0 0 0 0 0 0 0 0 0 0 0 0 0 0 0 0 0 0 0 0 0 0 0 0 0 0 0 0 0 0 0 0 0 0 0 0 0 0 0
0 0 0 0 0 0 0 0 0 0 0 0 0 0 0 0 0 0 0 0 0 0 0 0 0 0 0 0 0 0 0 0 0 0 0 0 0 0 0 0 0 0 0
Wind_Speed_500mb
57 58 62 64 70 61 53 43 36 33 34 37 39 41 37 30 25 19 15 16 14 10 11 11 7 13 16 18 21 26 28 27 26 35 37 42 34 28 23 31 37 43 45
60 61 64 69 71 62 54 48 40 36 40 32 33 41 32 29 24 14 17 17 15 15 15 14 11 14 19 22 27 29 30 34 37 35 40 26 36 20 34 37 39 42 44
62 65 73 73 70 67 57 51 45 39 38 38 34 40 38 34 27 18 14 19 20 21 21 22 17 18 19 17 22 27 33 36 34 32 23 17 14 45 25 32 28 34 40
64 67 77 77 75 69 60 52 48 43 40 39 39 40 42 38 30 23 17 15 18 29 27 24 21 20 22 25 27 30 33 37 37 30 25 26 31 35 21 26 35 32 30
68 71 82 80 76 70 66 57 52 44 37 42 44 41 46 45 39 34 29 24 25 31 34 30 31 29 30 30 31 32 34 32 32 29 33 36 40 37 34 41 30 30 26
75 72 73 79 81 76 68 64 58 49 41 38 43 45 43 50 48 40 39 36 29 27 29 34 35 36 38 32 30 35 33 28 29 28 32 32 36 37 34 38 36 25 16
79 79 77 79 84 84 76 69 64 57 49 43 39 41 46 48 55 47 43 41 32 27 24 27 29 34 33 31 34 35 34 30 29 30 30 29 31 31 31 32 30 21 11
70 82 84 81 82 86 84 73 68 62 56 52 46 41 43 45 46 46 44 42 36 33 26 27 23 16 20 28 35 37 28 28 34 29 32 30 29 28 28 30 31 13 10
58 73 82 84 80 85 86 78 71 65 62 56 52 50 45 42 44 45 47 44 46 38 35 30 25 26 30 29 34 29 27 30 36 36 35 29 27 27 28 27 21 14 13
55 67 72 76 80 78 80 76 70 64 58 58 60 54 51 49 43 44 48 51 50 49 46 43 40 36 34 33 34 29 28 33 37 41 30 29 30 29 26 22 15 11 11
30 48 49 55 63 67 68 71 70 65 65 61 59 59 59 57 54 50 46 50 51 53 54 51 48 43 37 33 37 33 29 31 37 42 33 32 30 29 16 16 14 5 10
32 25 22 23 38 45 51 58 63 67 66 62 60 58 54 52 55 57 52 48 53 51 53 53 53 46 40 39 38 33 29 33 39 41 35 29 32 19 10 7 10 9 3
58 52 41 35 25 22 25 33 48 59 62 65 64 63 59 52 45 42 43 43 49 50 51 52 50 46 43 41 39 30 34 36 40 38 33 26 27 16 10 7 7 9 5
60 57 54 50 43 35 25 15 3 19 43 59 61 61 62 58 51 46 41 38 37 45 52 52 52 49 46 47 41 31 36 38 39 38 31 27 23 13 6 9 9 10 8
50 48 46 41 39 36 34 30 28 28 21 6 17 31 43 55 59 54 52 47 42 42 42 47 49 49 49 45 38 32 35 38 39 38 32 28 25 13 6 7 8 10 17
47 43 40 38 38 37 33 27 26 26 26 23 13 13 23 33 45 54 55 59 57 50 48 46 45 48 49 46 40 31 37 38 39 36 31 27 23 13 9 12 12 8 9
37 34 33 33 33 33 32 33 31 27 26 26 25 24 22 17 21 31 41 51 56 59 59 54 50 53 53 51 44 34 36 40 38 34 30 26 19 13 12 15 18 22 12
30 28 26 25 28 28 31 32 30 31 32 32 34 32 35 37 33 34 37 36 42 50 56 58 60 61 57 58 53 40 42 42 37 32 27 24 16 12 12 16 21 23 17
30 28 24 25 27 28 32 35 39 44 45 42 39 38 40 44 45 43 42 41 43 46 49 56 59 62 61 60 56 47 44 43 37 32 27 21 14 15 16 17 20 23 20
28 29 29 30 33 39 44 49 54 53 56 58 56 51 46 43 48 50 49 48 45 44 42 45 56 52 58 54 55 53 50 46 36 31 24 23 13 18 19 20 21 18 17
39 42 43 44 44 44 45 48 50 50 51 49 54 59 59 53 48 50 52 48 43 36 42 47 55 63 64 57 33 24 39 31 29 30 27 21 15 21 24 24 26 15 17
43 45 46 48 46 42 45 49 57 57 57 53 51 49 51 54 50 50 52 45 31 29 34 33 34 32 41 54 74 68 19 24 42 41 35 26 18 23 24 24 23 26 22
55 55 58 62 61 56 48 44 37 34 37 44 49 48 46 48 53 49 49 44 29 25 27 29 23 26 29 43 57 74 79 76 51 51 43 36 25 28 33 29 27 30 28
63 65 65 67 70 65 60 55 55 54 50 48 48 50 53 53 53 54 49 45 33 32 38 38 37 38 39 41 36 48 63 76 56 56 53 44 34 32 38 36 37 34 32
68 70 75 79 78 73 65 62 63 57 53 53 52 52 49 53 54 57 56 48 38 38 41 45 45 51 60 66 66 63 76 68 58 58 58 53 48 43 45 42 41 40 38
81 81 81 83 82 77 76 72 64 59 59 57 53 50 48 47 51 61 61 54 46 42 46 49 58 67 71 63 51 45 74 68 58 61 62 59 50 44 45 45 43 44 43
Wind_Direction_500mb
221 223 224 217 212 213 214 216 217 218 209 212 214 208 217 217 214 235 254 235 227 208 206 214 243 252 271 283 292 303 306 311 313 310 319 318 315 310 303 295 292 299 300
222 223 217 212 212 214 216 218 221 217 214 215 218 213 214 213 225 251 240 235 247 229 233 244 253 273 280 284 294 300 303 314 323 322 324 324 321 323 320 309 301 297 297
223 216 208 213 212 215 219 223 226 225 224 222 217 214 222 224 233 247 246 226 251 256 261 255 264 270 291 307 314 309 313 316 324 327 315 314 295 317 321 318 310 300 297
224 218 210 213 215 220 223 230 229 230 230 222 217 217 222 229 237 251 260 249 272 254 257 260 268 265 280 298 312 324 315 318 327 325 319 307 312 320 312 325 311 307 294
222 217 215 221 223 223 225 229 230 233 237 232 228 226 229 235 237 243 252 246 269 276 253 261 266 274 283 295 305 321 314 315 319 320 324 324 323 321 315 313 314 303 302
221 223 228 226 226 226 228 230 230 234 236 237 238 237 237 238 240 244 246 250 267 268 261 265 271 274 278 290 299 310 315 312 315 318 321 323 321 319 313 304 302 293 294
224 224 225 229 230 229 229 230 230 233 237 239 241 242 243 245 243 245 246 247 257 257 261 271 291 282 266 285 294 307 312 314 317 316 321 321 320 319 316 309 294 272 262
226 226 227 233 239 236 232 232 234 235 237 238 240 241 243 243 243 244 245 243 247 256 271 273 280 284 268 285 294 304 313 316 313 316 317 315 318 320 317 313 293 255 216
225 230 227 231 239 240 238 235 237 239 240 241 243 244 245 247 246 244 244 243 239 249 255 260 275 273 279 292 300 306 309 306 313 321 319 315 321 322 324 321 282 271 207
235 226 226 230 236 240 245 243 243 247 251 250 247 249 251 251 253 251 247 247 245 245 251 259 267 273 278 287 298 303 294 302 314 326 323 321 325 328 324 339 333 249 253
207 211 219 226 234 238 244 247 249 253 255 257 256 257 257 255 255 256 256 251 252 251 251 255 263 268 274 285 301 298 293 311 314 328 325 322 325 320 307 316 350 259 266
125 152 178 203 232 239 247 256 255 257 258 262 265 263 266 267 263 259 261 260 253 254 253 252 255 261 270 285 294 291 298 300 313 322 325 327 330 319 301 323 326 280 260
108 117 129 134 156 189 215 237 252 262 264 262 265 268 268 267 268 266 267 265 256 253 255 253 252 257 266 275 282 287 294 295 307 316 318 321 327 314 298 313 302 245 207
91 93 94 93 97 104 108 95 39 276 264 264 265 265 266 271 272 272 272 272 265 255 253 254 252 254 262 270 270 282 288 292 303 307 311 315 317 302 299 303 279 210 195
89 86 83 78 75 75 67 59 46 30 19 312 283 277 271 271 273 271 272 272 270 270 260 254 254 252 254 255 260 275 283 287 297 299 306 313 314 306 220 236 237 224 184
85 81 76 71 62 58 51 41 32 23 30 53 38 307 281 278 275 272 272 273 271 268 269 263 254 255 248 247 255 269 274 284 290 290 299 310 303 294 225 204 180 176 198
83 74 67 63 59 58 57 56 45 38 31 21 15 15 2 340 317 296 280 265 264 271 270 268 265 255 252 250 253 264 268 275 278 283 294 306 286 267 241 191 175 155 148
75 71 60 50 43 36 34 31 28 28 23 14 9 6 358 355 340 320 310 301 287 273 269 267 266 263 259 256 253 255 257 263 264 270 286 301 277 249 215 194 183 172 167
63 63 54 39 29 18 10 2 359 356 349 345 344 340 335 332 333 328 320 310 299 290 280 272 265 264 265 262 258 255 259 262 258 265 278 290 257 221 204 198 192 190 178
26 19 16 12 7 -0 350 347 341 336 330 330 330 328 326 320 313 316 315 313 307 292 280 281 267 263 262 258 250 253 252 250 249 254 261 285 268 206 207 198 197 204 196
347 340 337 337 334 332 329 321 316 316 318 322 320 316 316 316 314 312 312 310 308 302 282 269 267 263 253 242 242 231 236 241 250 252 262 269 270 220 216 199 193 205 208
318 316 316 311 310 309 304 299 298 303 307 307 305 312 315 312 312 309 312 314 312 305 288 275 267 269 259 242 231 236 199 226 259 248 256 252 253 232 212 207 194 200 206
314 312 309 303 299 296 294 294 289 286 288 294 297 298 301 305 305 309 311 313 310 279 271 269 258 230 213 220 230 228 240 206 236 240 239 235 230 221 210 204 201 207 211
307 307 306 304 299 297 296 291 289 289 286 283 285 290 289 289 293 297 305 308 288 276 268 262 239 224 207 210 223 249 224 200 206 229 227 225 227 219 210 204 204 210 208
302 302 301 300 297 295 290 286 286 291 283 278 276 277 280 284 282 286 293 295 288 267 264 264 252 252 256 264 253 250 229 214 216 219 216 219 216 210 205 201 203 208 207
301 299 297 294 292 288 287 286 292 287 286 278 277 279 279 284 279 282 289 288 292 267 260 264 259 254 256 257 242 267 234 225 226 219 222 222 220 216 209 203 206 209 210
Wind_Speed_850mb
57 58 62 64 70 61 53 43 36 33 34 37 39 41 37 30 25 19 15 16 14 10 11 11 7 13 16 18 21 26 28 27 26 35 37 42 34 28 23 31 37 43 45
60 61 64 69 71 62 54 48 40 36 40 32 33 41 32 29 24 14 17 17 15 15 15 14 11 14 19 22 27 29 30 34 37 35 40 26 36 20 34 37 39 42 44
62 65 73 73 70 67 57 51 45 39 38 38 34 40 38 34 27 18 14 19 20 21 21 22 17 18 19 17 22 27 33 36 34 32 23 17 14 45 25 32 28 34 40
64 67 77 77 75 69 60 52 48 43 40 39 39 40 42 38 30 23 17 15 18 29 27 24 21 20 22 25 27 30 33 37 37 30 25 26 31 35 21 26 35 32 30
68 71 82 80 76 70 66 57 52 44 37 42 44 41 46 45 39 34 29 24 25 31 34 30 31 29 30 30 31 32 34 32 32 29 33 36 40 37 34 41 30 30 26
75 72 73 79 81 76 68 64 58 49 41 38 43 45 43 50 48 40 39 36 29 27 29 34 35 36 38 32 30 35 33 28 29 28 32 32 36 37 34 38 36 25 16
79 79 77 79 84 84 76 69 64 57 49 43 39 41 46 48 55 47 43 41 32 27 24 27 29 34 33 31 34 35 34 30 29 30 30 29 31 31 31 32 30 21 11
70 82 84 81 82 86 84 73 68 62 56 52 46 41 43 45 46 46 44 42 36 33 26 27 23 16 20 28 35 37 28 28 34 29 32 30 29 28 28 30 31 13 10
58 73 82 84 80 85 86 78 71 65 62 56 52 50 45 42 44 45 47 44 46 38 35 30 25 26 30 29 34 29 27 30 36 36 35 29 27 27 28 27 21 14 13
55 67 72 76 80 78 80 76 70 64 58 58 60 54 51 49 43 44 48 51 50 49 46 43 40 36 34 33 34 29 28 33 37 41 30 29 30 29 26 22 15 11 11
30 48 49 55 63 67 68 71 70 65 65 61 59 59 59 57 54 50 46 50 51 53 54 51 48 43 37 33 37 33 29 31 37 42 33 32 30 29 16 16 14 5 10
32 25 22 23 38 45 51 58 63 67 66 62 60 58 54 52 55 57 52 48 53 51 53 53 53 46 40 39 38 33 29 33 39 41 35 29 32 19 10 7 10 9 3
58 52 41 35 25 22 25 33 48 59 62 65 64 63 59 52 45 42 43 43 49 50 51 52 50 46 43 41 39 30 34 36 40 38 33 26 27 16 10 7 7 9 5
60 57 54 50 43 35 25 15 3 19 43 59 61 61 62 58 51 46 41 38 37 45 52 52 52 49 46 47 41 31 36 38 39 38 31 27 23 13 6 9 9 10 8
50 48 46 41 39 36 34 30 28 28 21 6 17 31 43 55 59 54 52 47 42 42 42 47 49 49 49 45 38 32 35 38 39 38 32 28 25 13 6 7 8 10 17
47 43 40 38 38 37 33 27 26 26 26 23 13 13 23 33 45 54 55 59 57 50 48 46 45 48 49 46 40 31 37 38 39 36 31 27 23 13 9 12 12 8 9
37 34 33 33 33 33 32 33 31 27 26 26 25 24 22 17 21 31 41 51 56 59 59 54 50 53 53 51 44 34 36 40 38 34 30 26 19 13 12 15 18 22 12
30 28 26 25 28 28 31 32 30 31 32 32 34 32 35 37 33 34 37 36 42 50 56 58 60 61 57 58 53 40 42 42 37 32 27 24 16 12 12 16 21 23 17
30 28 24 25 27 28 32 35 39 44 45 42 39 38 40 44 45 43 42 41 43 46 49 56 59 62 61 60 56 47 44 43 37 32 27 21 14 15 16 17 20 23 20
28 29 29 30 33 39 44 49 54 53 56 58 56 51 46 43 48 50 49 48 45 44 42 45 56 52 58 54 55 53 50 46 36 31 24 23 13 18 19 20 21 18 17
39 42 43 44 44 44 45 48 50 50 51 49 54 59 59 53 48 50 52 48 43 36 42 47 55 63 64 57 33 24 39 31 29 30 27 21 15 21 24 24 26 15 17
43 45 46 48 46 42 45 49 57 57 57 53 51 49 51 54 50 50 52 45 31 29 34 33 34 32 41 54 74 68 19 24 42 41 35 26 18 23 24 24 23 26 22
55 55 58 62 61 56 48 44 37 34 37 44 49 48 46 48 53 49 49 44 29 25 27 29 23 26 29 43 57 74 79 76 51 51 43 36 25 28 33 29 27 30 28
63 65 65 67 70 65 60 55 55 54 50 48 48 50 53 53 53 54 49 45 33 32 38 38 37 38 39 41 36 48 63 76 56 56 53 44 34 32 38 36 37 34 32
68 70 75 79 78 73 65 62 63 57 53 53 52 52 49 53 54 57 56 48 38 38 41 45 45 51 60 66 66 63 76 68 58 58 58 53 48 43 45 42 41 40 38
81 81 81 83 82 77 76 72 64 59 59 57 53 50 48 47 51 61 61 54 46 42 46 49 58 67 71 63 51 45 74 68 58 61 62 59 50 44 45 45 43 44 43
Wind_Direction_850mb
221 223 224 217 212 213 214 216 217 218 209 212 214 208 217 217 214 235 254 235 227 208 206 214 243 252 271 283 292 303 306 311 313 310 319 318 315 310 303 295 292 299 300
222 223 217 212 212 214 216 218 221 217 214 215 218 213 214 213 225 251 240 235 247 229 233 244 253 273 280 284 294 300 303 314 323 322 324 324 321 323 320 309 301 297 297
223 216 208 213 212 215 219 223 226 225 224 222 217 214 222 224 233 247 246 226 251 256 261 255 264 270 291 307 314 309 313 316 324 327 315 314 295 317 321 318 310 300 297
224 218 210 213 215 220 223 230 229 230 230 222 217 217 222 229 237 251 260 249 272 254 257 260 268 265 280 298 312 324 315 318 327 325 319 307 312 320 312 325 311 307 294
222 217 215 221 223 223 225 229 230 233 237 232 228 226 229 235 237 243 252 246 269 276 253 261 266 274 283 295 305 321 314 315 319 320 324 324 323 321 315 313 314 303 302
221 223 228 226 226 226 228 230 230 234 236 237 238 237 237 238 240 244 246 250 267 268 261 265 271 274 278 290 299 310 315 312 315 318 321 323 321 319 313 304 302 293 294
224 224 225 229 230 229 229 230 230 233 237 239 241 242 243 245 243 245 246 247 257 257 261 271 291 282 266 285 294 307 312 314 317 316 321 321 320 319 316 309 294 272 262
226 226 227 233 239 236 232 232 234 235 237 238 240 241 243 243 243 244 245 243 247 256 271 273 280 284 268 285 294 304 313 316 313 316 317 315 318 320 317 313 293 255 216
225 230 227 231 239 240 238 235 237 239 240 241 243 244 245 247 246 244 244 243 239 249 255 260 275 273 279 292 300 306 309 306 313 321 319 315 321 322 324 321 282 271 207
235 226 226 230 236 240 245 243 243 247 251 250 247 249 251 251 253 251 247 247 245 245 251 259 267 273 278 287 298 303 294 302 314 326 323 321 325 328 324 339 333 249 253
207 211 219 226 234 238 244 247 249 253 255 257 256 257 257 255 255 256 256 251 252 251 251 255 263 268 274 285 301 298 293 311 314 328 325 322 325 320 307 316 350 259 266
125 152 178 203 232 239 247 256 255 257 258 262 265 263 266 267 263 259 261 260 253 254 253 252 255 261 270 285 294 291 298 300 313 322 325 327 330 319 301 323 326 280 260
108 117 129 134 156 189 215 237 252 262 264 262 265 268 268 267 268 266 267 265 256 253 255 253 252 257 266 275 282 287 294 295 307 316 318 321 327 314 298 313 302 245 207
91 93 94 93 97 104 108 95 39 276 264 264 265 265 266 271 272 272 272 272 265 255 253 254 252 254 262 270 270 282 288 292 303 307 311 315 317 302 299 303 279 210 195
89 86 83 78 75 75 67 59 46 30 19 312 283 277 271 271 273 271 272 272 270 270 260 254 254 252 254 255 260 275 283 287 297 299 306 313 314 306 220 236 237 224 184
85 81 76 71 62 58 51 41 32 23 30 53 38 307 281 278 275 272 272 273 271 268 269 263 254 255 248 247 255 269 274 284 290 290 299 310 303 294 225 204 180 176 198
83 74 67 63 59 58 57 56 45 38 31 21 15 15 2 340 317 296 280 265 264 271 270 268 265 255 252 250 253 264 268 275 278 283 294 306 286 267 241 191 175 155 148
75 71 60 50 43 36 34 31 28 28 23 14 9 6 358 355 340 320 310 301 287 273 269 267 266 263 259 256 253 255 257 263 264 270 286 301 277 249 215 194 183 172 167
63 63 54 39 29 18 10 2 359 356 349 345 344 340 335 332 333 328 320 310 299 290 280 272 265 264 265 262 258 255 259 262 258 265 278 290 257 221 204 198 192 190 178
26 19 16 12 7 -0 350 347 341 336 330 330 330 328 326 320 313 316 315 313 307 292 280 281 267 263 262 258 250 253 252 250 249 254 261 285 268 206 207 198 197 204 196
347 340 337 337 334 332 329 321 316 316 318 322 320 316 316 316 314 312 312 310 308 302 282 269 267 263 253 242 242 231 236 241 250 252 262 269 270 220 216 199 193 205 208
318 316 316 311 310 309 304 299 298 303 307 307 305 312 315 312 312 309 312 314 312 305 288 275 267 269 259 242 231 236 199 226 259 248 256 252 253 232 212 207 194 200 206
314 312 309 303 299 296 294 294 289 286 288 294 297 298 301 305 305 309 311 313 310 279 271 269 258 230 213 220 230 228 240 206 236 240 239 235 230 221 210 204 201 207 211
307 307 306 304 299 297 296 291 289 289 286 283 285 290 289 289 293 297 305 308 288 276 268 262 239 224 207 210 223 249 224 200 206 229 227 225 227 219 210 204 204 210 208
302 302 301 300 297 295 290 286 286 291 283 278 276 277 280 284 282 286 293 295 288 267 264 264 252 252 256 264 253 250 229 214 216 219 216 219 216 210 205 201 203 208 207
301 299 297 294 292 288 287 286 292 287 286 278 277 279 279 284 279 282 289 288 292 267 260 264 259 254 256 257 242 267 234 225 226 219 222 222 220 216 209 203 206 209 210